sat.trackr.live / text

‹ back to catalog

STARLINK-37649

NORAD 69202 · 2026-114W

PAYLOAD ACTIVE UNKNOWN

§ Identity

Operator
Country
US
Launch date
2026-05-25
Launch site
AFETR
Launch vehicle
Mass (kg)
RCS (m²)

Purposes: comms

External: N2YO · Heavens-Above · Gunter

§ Orbital elements

Epoch: 2026-09-19T22:49:42.878208Z

Period
93.85 min
Inclination
53.1569°
Eccentricity
0.0001031
Mean motion
15.34404255 rev/d
Perigee alt
462.0 km
Apogee alt
463.4 km
Semi-major
6,840.8 km
B*
3.4918e-4
RAAN
116.1468°
Arg perigee
90.1995°
Mean anomaly
269.9125°
Rev number
1,936

§ Raw data

STARLINK-376491 69202U 26114W   26262.95119072  .00011441  00000+0  34918-3 0  99932 69202  53.1569 116.1468 0001031  90.1995 269.9125 15.34404255 19361

JSON: /api/v1/satellites/69202 · /tle

For live sub-satellite position, see the globe view (requires WebGL).

§ Visibility from observer

Set your observer location to see the next 7 days of passes ≥ 10°. The values pass through the URL so the page stays shareable.

No JS? Fill the form by hand. The geolocation button needs JavaScript.